Location: *
(46.4833°N, 7.6667°E)
Time: 23:10:24
(UTC+00:00)

Cosmos 2297 Rocket - Pass Details

Date: 27 February 2020
Orbit: 838 x 844 km, 71.0° (Epoch: 09 April)

Event Time Altitude Azimuth Distance (km) Brightness Sun altitude
Rises 17:54:02 0° 340° (NNW) 3,414 5.6 -8.1°
Reaches altitude 10° 17:57:15 10° 358° (N) 2,476 4.6 -8.6°
Maximum altitude 18:01:13 19° 42° (NE) 1,915 3.7 -9.3°
Enters shadow 18:04:28 12° 81° (E) 2,306 3.8 -9.9°
